Regional Weather Roundup
Issued by NWS State College, PA

Home | Current Version | Previous Version | Text Only | Print | Product List | Glossary On
Versions: 1 2 3 4 5 6 7 8 9 10 11 12 13 14 15 16 17 18 19 20 21 22 23 24 25 26 27 28 29 30 31 32 33 34 35 36 37 38 39 40 41 42 43 44 45 46 47 48 49 50
000
ASUS41 KCTP 022303
RWRCTP

REGIONAL WEATHER ROUNDUP
NATIONAL WEATHER SERVICE STATE COLLEGE PA
700 PM EDT TUE JUN 02 2015

Note: "fair" indicates few or no clouds below 12,000 feet with no
significant weather and/or obstructions to visibility.

* = STATION THAT DOES NOT REPORT PRECIPITATION /E.G. RAIN...SNOW...ETC/
    THUNDER OR FOG.

PAZ002>004-007>009-013>016-020>023-029>032-030000-
WESTERN PENNSYLVANIA

CITY           SKY/WX    TMP DP  RH WIND       PRES   REMARKS
ERIE           MOSUNNY   63  45  51 NE14G21   30.12F
MEADVILLE      PTSUNNY   68  47  46 NE10      30.10S
FRANKLIN*      PTSUNNY   66  46  48 E7        30.12R
NEW CASTLE     FAIR      68  56  65 CALM      30.11S
BEAVER COUNTY  NOT AVBL
BUTLER*        CLOUDY    63  54  72 SE5       30.13R
PITTSBURGH INT CLOUDY    63  53  70 E8        30.10S
PITTSBURGH     CLOUDY    60  51  72 VRB5      30.10S
INDIANA*       CLOUDY    61  54  77 E3        30.15S
LATROBE        CLOUDY    61  57  88 N6        30.11S
WASHINGTON CO* CLOUDY    61  54  77 NE6       30.12S
$$

PAZ004>006-010>012-017>019-024>028-033>037-041-042-045-046-049>053-030000-
CENTRAL PENNSYLVANIA

CITY           SKY/WX    TMP DP  RH WIND       PRES   REMARKS
BRADFORD       PTSUNNY   62  44  51 NE7       30.13S
DUBOIS         CLOUDY    66  48  52 E7        30.11S
CLEARFIELD     CLOUDY    60  50  69 E8        30.13R
JOHNSTOWN      CLOUDY    57  52  83 NE6       30.12S
ALTOONA        CLOUDY    58  53  84 E7        30.13R
STATE COLLEGE  PTSUNNY   59  52  77 E8        30.13R
WILLIAMSPORT   CLOUDY    62  50  64 NE8       30.12R
SELINSGROVE    CLOUDY    62  56  80 NE5       30.14R
FT INDIANTOWN  LGT RAIN  58  56  94 NE2       30.13R
CAPITAL CITY   LGT RAIN  60  57  89 E3        30.13R
HARRISBURG     LGT RAIN  60  56  86 CALM      30.12R
YORK           LGT RAIN  59  55  87 NE3       30.12S
$$

PAZ038>040-043-044-047-048-054-055-060>062-067>071-030000-
EASTERN PENNSYLVANIA

CITY           SKY/WX    TMP DP  RH WIND       PRES   REMARKS
SCRANTON       CLOUDY    59  54  83 CALM      30.13R
MOUNT POCONO   CLOUDY    56  52  86 NE5       30.15F
ALLENTOWN      LGT RAIN  57  54  89 E7        30.13R
QUAKERTOWN*    CLOUDY    55  54  94 NE3       30.14R
READING        LGT RAIN  57  54  89 NE3       30.12R
LANCASTER      LGT RAIN  57  55  93 E7        30.12S
COATESVILLE    LGT RAIN  54  54 100 NE3       30.13R
POTTSTOWN      LGT RAIN  54  54 100 E3        30.14S
BLUE BELL      CLOUDY    55  55 100 E3        30.13R
DOYLESTOWN     LGT RAIN  53  53 100 CALM      30.13R
WILLOW GROVE   NOT AVBL
NORTH PHILA    LGT RAIN  57  52  83 E7        30.14S
PHILADELPHIA   LGT RAIN  57  53  86 E12G18    30.13S FOG
$$



USA.gov is the U.S. government's official web portal to all federal, state and local government web resources and services.